Content
SEND FEEDBACK

Daily
Averages
Monthly
Summary
United States of America

PYGA BEACH, GUAM


Home > North America > United States > Guam
Elevation: 6 meters     Latitude: 13 17N     Longitude: 144 39E

WEATHER
 
SELECT A DAY
Number of Records: 356,396;   Date Range: 1/1/95 - 12/17/14
 
SHARE

PRINT THIS DATA

[ ← Previous Day ]
WEATHER ALMANAC - 8 JULY, 2013
[ Next Day → ]
[ °F ]   °C
We're sorry. There is no daily almanac available for Pyga Beach, Guam on 8 July, 2013.
WEATHER BY HOUR - 8 JULY, 2013
[ °F ]   °C
Local TimeTemperatureDewpointHumidityBarometerVisibilityWind DirectionWind SpeedGust SpeedPrecipitationEventsConditions
1:55 AM24.9 °C23.5 °C92 %1008.8 hPa16.1 kmSouth (190°)9.3 km/hClear
2:55 AM24.8 °C22.7 °C88 %1008.5 hPa16.1 kmSSW (210°)9.3 km/hClear
3:55 AM24.3 °C22.1 °C87 %1008.1 hPa16.1 kmSSW (200°)9.3 km/hClear
4:55 AM24.4 °C21.8 °C85 %1008.1 hPa16.1 kmSSW (210°)11.1 km/hPartly Cloudy
5:55 AM24.4 °C21.8 °C85 %1008.8 hPa16.1 kmSSW (200°)7.4 km/hClear
6:55 AM25.6 °C23.1 °C86 %1009.1 hPa16.1 kmWSW (240°)13 km/hClear
7:55 AM27.3 °C24.9 °C87 %1009.1 hPa16.1 kmWSW (240°)13 km/hClear
8:35 AM28 °C25 °C84 %1009.1 hPa16.1 kmSW (220°)18.5 km/hMostly Cloudy
8:36 AM28 °C25 °C84 %1009.1 hPa16.1 kmSW (230°)20.4 km/hScattered Clouds
8:38 AM28 °C25 °C84 %1009.1 hPa16.1 kmSW (220°)18.5 km/hMostly Cloudy
8:46 AM28 °C25 °C84 %1009.1 hPa16.1 kmSW (230°)24.1 km/h33.3 km/hScattered Clouds
8:55 AM28.8 °C25.3 °C81 %1009.1 hPa16.1 kmSSW (210°)24.1 km/h33.3 km/hScattered Clouds
9:45 AM29 °C25 °C79 %1009.1 hPa16.1 kmSSW (210°)18.5 km/h35.2 km/hMostly Cloudy
9:49 AM29 °C26 °C84 %1009.1 hPa16.1 kmSW (220°)18.5 km/h35.2 km/hScattered Clouds
9:55 AM28.3 °C25.9 °C87 %1009.5 hPa16.1 kmSW (220°)18.5 km/hScattered Clouds
10:04 AM27 °C26 °C94 %1009.5 hPa16.1 kmWest (270°)20.4 km/hMostly Cloudy
10:07 AM27 °C26 °C94 %1009.5 hPa16.1 kmWest (270°)20.4 km/hMostly Cloudy
10:37 AM29 °C27 °C89 %1009.5 hPa16.1 kmSW (220°)14.8 km/hMostly Cloudy
10:38 AM29 °C27 °C89 %1009.5 hPa16.1 kmSSW (210°)18.5 km/hLight Drizzle
10:55 AM26.6 °C24.7 °C89 %1009.8 hPa16.1 kmWest (270°)22.2 km/h33.3 km/h0.51 mmRainLight Rain
11:03 AM27 °C25 °C89 %1009.8 hPa16.1 kmWest (270°)16.7 km/hMostly Cloudy
11:09 AM27 °C26 °C94 %1009.8 hPa16.1 kmWest (270°)18.5 km/hRainLight Rain
11:28 AM26 °C24 °C89 %1009.8 hPa12.9 kmWSW (240°)20.4 km/hScattered Clouds
11:55 AM28 °C26.1 °C89 %1009.1 hPa16.1 kmWSW (240°)16.7 km/h0.25 mmScattered Clouds
12:55 PM29.7 °C25.8 °C79 %1008.5 hPa16.1 kmSW (230°)18.5 km/hMostly Cloudy
1:20 PM30 °C26 °C79 %1008.5 hPa16.1 kmWest (280°)13 km/hMostly Cloudy
1:28 PM30 °C27 °C84 %1008.1 hPa16.1 kmWest (280°)14.8 km/hMostly Cloudy
1:32 PM30 °C26 °C79 %1008.1 hPa16.1 kmWest (280°)16.7 km/hMostly Cloudy
1:53 PM30 °C26 °C79 %1007.8 hPa16.1 kmWest (280°)22.2 km/hMostly Cloudy
1:55 PM30.3 °C26.3 °C79 %1007.8 hPa16.1 kmWest (270°)22.2 km/hMostly Cloudy
1:57 PM30 °C26 °C79 %1007.8 hPa16.1 kmWest (270°)22.2 km/hMostly Cloudy
2:07 PM30 °C26 °C79 %1007.5 hPa16.1 kmWest (260°)20.4 km/hMostly Cloudy
2:55 PM29.9 °C25.9 °C79 %1007.5 hPa16.1 kmWest (280°)24.1 km/hPartly Cloudy
3:55 PM29.4 °C25.5 °C79 %1007.1 hPa16.1 kmWest (270°)27.8 km/hClear
4:55 PM28.6 °C25.4 °C83 %1006.8 hPa16.1 kmWest (260°)14.8 km/hClear
5:55 PM28.3 °C25.1 °C83 %1007.1 hPa16.1 kmSW (220°)11.1 km/hClear
6:55 PM27.5 °C25 °C86 %1007.8 hPa16.1 kmSSW (210°)11.1 km/hClear
7:55 PM27.2 °C25.5 °C90 %1008.1 hPa16.1 kmSSW (200°)13 km/hPartly Cloudy
8:55 PM27 °C25.7 °C93 %1008.8 hPa16.1 kmSSW (200°)14.8 km/hScattered Clouds
9:13 PM27 °C26 °C94 %1008.8 hPa16.1 kmSSW (200°)13 km/hMostly Cloudy
9:14 PM27 °C26 °C94 %1008.8 hPa16.1 kmSSW (210°)11.1 km/hScattered Clouds
9:15 PM27 °C26 °C94 %1008.8 hPa16.1 kmSSW (210°)13 km/hMostly Cloudy
9:18 PM27 °C26 °C94 %1008.8 hPa16.1 kmSSW (200°)14.8 km/hScattered Clouds
9:55 PM27 °C25.6 °C92 %1008.8 hPa16.1 kmSSW (210°)13 km/hClear
10:55 PM26.9 °C25.5 °C92 %1009.1 hPa16.1 kmSSW (200°)14.8 km/hScattered Clouds
11:55 PM26.7 °C25.2 °C91 %1008.8 hPa16.1 kmSSW (200°)13 km/hClear
Hourly data recorded from PGUA, located 0 kilometers away from Pyga Beach, Guam







STORIES FROM OUR PARTNERS